Montgomery, NY

8:57 AM EST on November 15, 2019 (GMT -0500)
Orange County

Weather History for KMGJ - August, 2019

Change the Weather History Date:

Thursday, August 1, 2019

  Actual Average (KSWF) Record (KSWF)
Temperature  
Mean Temperature 72 °F -  
Max Temperature 84 °F 80 °F 96 °F (1999)
Min Temperature 63 °F 60 °F 50 °F (1981)
Cooling Degree Days 8    
Growing Degree Days 22 (Base 50)    
Moisture  
Dew Point 64 °F    
Average Humidity 84    
Maximum Humidity 100    
Minimum Humidity 46    
Precipitation  
Precipitation 0.00 in - - ()
Sea Level Pressure  
Sea Level Pressure 30.08 in    
Wind  
Wind Speed 3 mph (NNW)    
Max Wind Speed 7 mph    
Max Gust Speed -    
Visibility 6 miles    
Events Fog    
Averages and records for this station are not official NWS values.
T = Trace of Precipitation, MM = Missing Value Source: NWS Daily Summary

Daily Weather History Graph

Daily Weather History Graph

Search for Another Location

Airport or City:

Astronomy

Aug. 01, 2019 Rise Set
Actual Time 5:51 AM EDT 8:14 PM EDT
Civil Twilight 5:20 AM EDT 8:45 PM EDT
Nautical Twilight 4:41 AM EDT 9:24 PM EDT
Astronomical Twilight 3:58 AM EDT 10:07 PM EDT
Moon 6:12 AM EDT (8/1) 8:59 PM EDT (8/1)
Length of Visible Light 15h 25m
Length of Day
14h 23m
New Moon, 0% of the Moon is Illuminated
Aug 1
New Moon
Aug 7
First Quarter
Aug 15
Full
Aug 23
Last Quarter
Aug 30
New

Hourly Weather History & Observations

Time (EDT) Temp. Heat Index Dew Point Humidity Pressure Visibility Wind Dir Wind Speed Gust Speed Precip Events Conditions
12:02 AM 64.9 °F - 64.9 °F 100% 30.05 in 7.0 mi SW 3.5 mph - N/A   Scattered Clouds
12:05 AM 64.9 °F - 64.9 °F 100% 30.05 in 2.5 mi SW 3.5 mph - N/A   Mostly Cloudy
12:08 AM 64.9 °F - 64.9 °F 100% 30.06 in 1.0 mi WSW 3.5 mph - N/A   Mist
12:54 AM 64.9 °F - 64.9 °F 100% 30.05 in 0.5 mi West 3.5 mph - N/A Fog Fog
1:54 AM 66.0 °F - 66.0 °F 100% 30.05 in 0.2 mi Calm Calm - N/A Fog Fog
2:54 AM 64.9 °F - 64.9 °F 100% 30.06 in 0.5 mi Calm Calm - N/A Fog Fog
3:54 AM 64.9 °F - 64.9 °F 100% 30.06 in 0.2 mi Calm Calm - N/A Fog Fog
4:54 AM 64.9 °F - 64.9 °F 100% 30.06 in 0.2 mi NW 3.5 mph - N/A Fog Fog
5:29 AM 63.0 °F - 63.0 °F 100% 30.07 in 1.5 mi NNW 3.5 mph - N/A   Overcast
5:31 AM 63.0 °F - 63.0 °F 100% 30.07 in 3.0 mi NNW 3.5 mph - N/A   Overcast
5:54 AM 63.0 °F - 63.0 °F 100% 30.07 in 10.0 mi North 4.6 mph - N/A   Overcast
6:05 AM 63.0 °F - 63.0 °F 100% 30.07 in 1.0 mi Calm Calm - N/A   Overcast
6:12 AM 63.0 °F - 63.0 °F 100% 30.08 in 0.2 mi Calm Calm - N/A Fog Fog
6:54 AM 64.0 °F - 64.0 °F 100% 30.09 in 0.2 mi Calm Calm - N/A Fog Fog
7:54 AM 64.0 °F - 64.0 °F 100% 30.10 in 0.5 mi Calm Calm - N/A Fog Fog
8:36 AM 66.0 °F - 66.0 °F 100% 30.11 in 1.2 mi Variable 3.5 mph - N/A   Overcast
8:43 AM 66.0 °F - 66.0 °F 100% 30.11 in 3.0 mi Calm Calm - N/A   Overcast
8:54 AM 66.9 °F - 66.0 °F 97% 30.11 in 10.0 mi NNE 5.8 mph - N/A   Mostly Cloudy
9:02 AM 66.9 °F - 64.9 °F 93% 30.11 in 10.0 mi NE 5.8 mph - N/A   Scattered Clouds
9:54 AM 73.9 °F - 64.9 °F 73% 30.11 in 10.0 mi Variable 3.5 mph - N/A   Clear
10:54 AM 77.0 °F - 63.0 °F 62% 30.12 in 10.0 mi NE 5.8 mph - N/A   Clear
11:54 AM 79.0 °F - 63.0 °F 58% 30.12 in 10.0 mi Variable 3.5 mph - N/A   Clear
12:54 PM 81.0 °F 81.7 °F 61.0 °F 50% 30.12 in 10.0 mi NNW 3.5 mph - N/A   Clear
1:54 PM 82.9 °F 83.2 °F 60.1 °F 46% 30.10 in 10.0 mi North 4.6 mph - N/A   Clear
2:54 PM 82.9 °F 83.7 °F 62.1 °F 49% 30.09 in 10.0 mi Variable 4.6 mph - N/A   Partly Cloudy
3:54 PM 82.9 °F 83.3 °F 61.0 °F 47% 30.07 in 10.0 mi Calm Calm - N/A   Scattered Clouds
4:54 PM 82.9 °F 83.7 °F 62.1 °F 49% 30.06 in 10.0 mi WSW 4.6 mph - N/A   Scattered Clouds
5:54 PM 82.9 °F 83.7 °F 62.1 °F 49% 30.05 in 10.0 mi East 3.5 mph - N/A   Clear
6:54 PM 81.0 °F 82.2 °F 63.0 °F 54% 30.05 in 10.0 mi ESE 6.9 mph - N/A   Scattered Clouds
7:54 PM 77.0 °F - 63.0 °F 62% 30.06 in 10.0 mi East 4.6 mph - N/A   Clear
8:54 PM 70.0 °F - 66.0 °F 87% 30.08 in 10.0 mi Calm Calm - N/A   Clear
9:54 PM 68.0 °F - 64.9 °F 90% 30.10 in 10.0 mi Calm Calm - N/A   Clear
10:54 PM 66.9 °F - 64.0 °F 90% 30.10 in 10.0 mi Calm Calm - N/A   Clear
11:54 PM 64.9 °F - 64.0 °F 97% 30.12 in 10.0 mi Calm Calm - N/A   Clear